This is the latest recevied weather packets stored in our database for station/object K4AXV-13. If no packets are shown the sender has not sent any weather packets the latest 10 day(s).
| Time | Temp. | Humidity | Pressure | Rain* | Wind** | Luminosity | Snow |
|---|---|---|---|---|---|---|---|
| 1777277697 | 12.78° C | - | - | 0 mm | 1.79 m/s, 82° | - | - |
| 1777276496 | 12.22° C | - | - | 0 mm | 2.68 m/s, 79° | - | - |
| 1777276194 | 12.22° C | - | - | 0 mm | 1.79 m/s, 104° | - | - |
| 1777275593 | 12.78° C | - | - | 0 mm | 2.68 m/s, 93° | - | - |
| 1777274815 | 12.78° C | - | - | 0 mm | 1.79 m/s, 97° | - | - |
| 1777274693 | 12.78° C | - | - | 0 mm | 1.79 m/s, 97° | - | - |
| 1777273492 | 12.78° C | - | - | 0 mm | 1.34 m/s, 82° | - | - |
| 1777271989 | 12.78° C | - | - | 0 mm | 2.24 m/s, 93° | - | - |
| 1777271389 | 12.78° C | - | - | 0 mm | 2.24 m/s, 83° | - | - |
| 1777271090 | 12.78° C | - | - | 0 mm | 0.89 m/s, 86° | - | - |
| 1777270788 | 12.78° C | - | - | 0 mm | 2.24 m/s, 96° | - | - |
| 1777270188 | 12.78° C | - | - | 0 mm | 2.68 m/s, 104° | - | - |
| 1777269889 | 12.78° C | - | - | 0 mm | 2.24 m/s, 96° | - | - |
| 1777269588 | 12.78° C | - | - | 0 mm | 2.24 m/s, 69° | - | - |
| 1777269288 | 12.78° C | - | - | 0 mm | 1.79 m/s, 82° | - | - |
| 1777268986 | 13.33° C | - | - | 0 mm | 1.79 m/s, 97° | - | - |
| 1777268688 | 12.78° C | - | - | 0 mm | 2.68 m/s, 59° | - | - |
| 1777268087 | 12.78° C | - | - | 0 mm | 2.68 m/s, 104° | - | - |
| 1777267185 | 12.78° C | - | - | 0 mm | 2.24 m/s, 132° | - | - |
| 1777266286 | 12.78° C | - | - | 0 mm | 1.79 m/s, 76° | - | - |
| 1777265383 | 12.78° C | - | - | 0 mm | 1.79 m/s, 104° | - | - |
| 1777265085 | 13.33° C | - | - | 0 mm | 2.24 m/s, 98° | - | - |
* Rain latest hour (hover to see other rain measurements)
** Current wind speed in m/s (hover to see current wind gust speed)